Regional Weather Roundup
Issued by NWS

Home | Current Version | Previous Version | Text Only | Print | Product List | Glossary Off
Versions: 1 2 3 4 5 6 7 8 9 10 11 12 13 14 15 16 17 18 19 20 21 22 23 24 25 26 27 28 29 30 31 32 33 34 35 36 37 38 39 40 41 42 43 44 45 46 47 48 49 50

000
ASUS43 KFSD 302002
RWRSD

WEATHER ROUNDUP FOR SOUTH DAKOTA
NATIONAL WEATHER SERVICE SIOUX FALLS SD
300 PM CDT THU JUL 30 2015

NOTE: "FAIR" INDICATES FEW OR NO CLOUDS BELOW 12,000 FEET WITH NO
SIGNIFICANT WEATHER AND/OR OBSTRUCTIONS TO VISIBILITY.


SDZ001>005-009-010-012>017-302100-
NORTHWEST AND NORTH CENTRAL SOUTH DAKOTA

CITY           SKY/WX    TMP DP  RH WIND       PRES   REMARKS
BUFFALO          N/A     89  40  17 W14G22    30.16S
FAITH            N/A     89  37  16 W12G21    30.19F
MOBRIDGE       SUNNY     89  50  26 N12       30.11F
$$

SDZ012>016-024>037-041>051-057-063-072>074-302100-
SOUTHWEST AND SOUTH CENTRAL SOUTH DAKOTA

CITY           SKY/WX    TMP DP  RH WIND       PRES   REMARKS
RAPID CTY ARPT SUNNY     86  45  23 N7        30.25S
PIERRE         SUNNY     91  42  18 NW13G21   30.14F
CUSTER         SUNNY     80  35  19 NW8       30.38F
ELLSWORTH AFB  SUNNY     86  42  21 VRB1      30.24F
PHILIP         SUNNY     89  45  21 VRB6      30.18F
PINE RIDGE     SUNNY     88  42  20 CALM      30.25F
WINNER         FAIR      92  43  18 NW8       30.17S
$$

SDZ004>011-016>023-039-040-302100-
NORTHEAST SOUTH DAKOTA

CITY           SKY/WX    TMP DP  RH WIND       PRES   REMARKS
ABERDEEN       SUNNY     89  51  27 NW16      30.09F
WATERTOWN      SUNNY     84  54  35 W12       30.13F
BROOKINGS      SUNNY     82  54  36 W12       30.16S
SISSETON         N/A     84  56  38 NW13      30.07F
$$

SDZ017-020-022-023-036>040-048>070-302100-
SOUTHEAST SOUTH DAKOTA

CITY           SKY/WX    TMP DP  RH WIND       PRES   REMARKS
SIOUX FALLS    MOSUNNY   85  62  46 W9        30.14F
HURON          SUNNY     88  52  29 MISG      30.12F
MITCHELL       SUNNY     89  57  33 CALM      30.13F
YANKTON        SUNNY     86  61  42 W7        30.12F
$$

ABBREVIATIONS USED IN REMARKS
   TC - TEMPERATURE IN CELSIUS
  WCI - WIND CHILL INDEX
   HX - HEAT INDEX
  VSB - VISIBILITY




USA.gov is the U.S. government's official web portal to all federal, state and local government web resources and services.